Meteo pe oră la Dziekanowice

Astăzi, 2 Martie, Marţi

Timp Temperatura Precipitaţii Vânt Presiune Umiditate
00:00 +2°C° 0 mm 1 m/s 752 mmHg 90%
01:00 +2°C° 0 mm 1 m/s 752 mmHg 90%
02:00 +2°C° 0 mm 1 m/s 752 mmHg 89%
03:00 +2°C° 0 mm 1 m/s 751 mmHg 89%
04:00 +1°C° 0 mm 2 m/s 751 mmHg 88%
05:00 +1°C° 0 mm 2 m/s 751 mmHg 86%
06:00 +1°C° 0 mm 2 m/s 751 mmHg 84%
07:00 +1°C° 0 mm 2 m/s 751 mmHg 82%
08:00 +3°C° 0 mm 2 m/s 751 mmHg 74%
09:00 +4°C° 0 mm 3 m/s 751 mmHg 65%
10:00 +7°C° 0 mm 3 m/s 751 mmHg 56%
11:00 +8°C° 0 mm 3 m/s 751 mmHg 55%
12:00 +9°C° 0 mm 3 m/s 751 mmHg 53%
13:00 +10°C° 0 mm 3 m/s 750 mmHg 51%
14:00 +10°C° 0 mm 3 m/s 750 mmHg 54%
15:00 +10°C° 0 mm 3 m/s 750 mmHg 57%
16:00 +9°C° 0 mm 3 m/s 749 mmHg 59%
17:00 +8°C° 0 mm 3 m/s 750 mmHg 64%
18:00 +7°C° 0 mm 3 m/s 750 mmHg 68%
19:00 +4°C° 0 mm 3 m/s 750 mmHg 72%
20:00 +5°C° 0 mm 2 m/s 750 mmHg 74%
21:00 +4°C° 0 mm 2 m/s 750 mmHg 75%
22:00 +4°C° 0 mm 2 m/s 750 mmHg 77%
23:00 +5°C° 0 mm 1 m/s 750 mmHg 78%

Mâine, 3 Martie, Miercuri

Timp Temperatura Precipitaţii Vânt Presiune Umiditate
00:00 +4°C° 0 mm 1 m/s 750 mmHg 79%
01:00 +4°C° 0 mm 1 m/s 750 mmHg 80%
02:00 +4°C° 0 mm 1 m/s 750 mmHg 80%
03:00 +3°C° 0 mm 1 m/s 749 mmHg 80%
04:00 +3°C° 0 mm 1 m/s 749 mmHg 80%
05:00 +3°C° 0 mm 1 m/s 749 mmHg 80%
06:00 +3°C° 0 mm 1 m/s 749 mmHg 79%
07:00 +3°C° 0 mm 1 m/s 749 mmHg 79%
08:00 +5°C° 0 mm 1 m/s 748 mmHg 72%
09:00 +7°C° 0 mm 1 m/s 748 mmHg 65%
10:00 +9°C° 0 mm 1 m/s 748 mmHg 58%
11:00 +10°C° 0 mm 1 m/s 748 mmHg 54%
12:00 +12°C° 0 mm 1 m/s 747 mmHg 50%
13:00 +13°C° 0 mm 1 m/s 747 mmHg 46%
14:00 +13°C° 0 mm 1 m/s 746 mmHg 48%
15:00 +12°C° 0 mm 1 m/s 746 mmHg 50%
16:00 +12°C° 0 mm 1 m/s 745 mmHg 53%
17:00 +11°C° 0 mm 1 m/s 745 mmHg 57%
18:00 +9°C° 0 mm 1 m/s 745 mmHg 60%
19:00 +7°C° 0 mm 2 m/s 744 mmHg 64%
20:00 +7°C° 0 mm 2 m/s 744 mmHg 67%
21:00 +5°C° 0 mm 3 m/s 744 mmHg 71%
22:00 +4°C° 0 mm 3 m/s 743 mmHg 74%
23:00 +4°C° 0 mm 3 m/s 743 mmHg 75%

Poimâine, 4 Martie, Joi

Timp Temperatura Precipitaţii Vânt Presiune Umiditate
00:00 +4°C° 0 mm 3 m/s 742 mmHg 76%
01:00 +3°C° 0 mm 3 m/s 742 mmHg 77%
02:00 +3°C° 0 mm 3 m/s 742 mmHg 78%
03:00 +3°C° 0 mm 3 m/s 741 mmHg 79%
04:00 +2°C° 0 mm 3 m/s 740 mmHg 81%
05:00 +2°C° 0 mm 3 m/s 740 mmHg 80%
06:00 +2°C° 0 mm 3 m/s 740 mmHg 80%
07:00 +3°C° 0 mm 3 m/s 739 mmHg 80%
08:00 +4°C° 0 mm 4 m/s 739 mmHg 74%
09:00 +6°C° 0 mm 4 m/s 739 mmHg 68%
10:00 +8°C° 0 mm 4 m/s 738 mmHg 61%
11:00 +9°C° 0 mm 5 m/s 738 mmHg 59%
12:00 +10°C° 0 mm 5 m/s 737 mmHg 57%
13:00 +12°C° 0 mm 5 m/s 737 mmHg 55%
14:00 +10°C° 0 mm 5 m/s 736 mmHg 57%
15:00 +11°C° 0 mm 4 m/s 736 mmHg 59%
16:00 +11°C° 0 mm 4 m/s 735 mmHg 61%
17:00 +10°C° 0 mm 3 m/s 735 mmHg 66%
18:00 +9°C° 0 mm 3 m/s 735 mmHg 70%
19:00 +8°C° 0 mm 2 m/s 735 mmHg 75%
20:00 +8°C° 0.1 mm 2 m/s 734 mmHg 77%
21:00 +7°C° 0.1 mm 2 m/s 734 mmHg 79%
22:00 +7°C° 0.1 mm 2 m/s 734 mmHg 80%
23:00 +7°C° 0.8 mm 2 m/s 734 mmHg 84%

5 Martie, Vineri

Timp Temperatura Precipitaţii Vânt Presiune Umiditate
00:00 +6°C° 0.8 mm 2 m/s 733 mmHg 88%
01:00 +6°C° 0.8 mm 2 m/s 733 mmHg 92%
02:00 +4°C° 1.8 mm 3 m/s 733 mmHg 93%
03:00 +3°C° 1.8 mm 3 m/s 733 mmHg 94%
04:00 +3°C° 1.8 mm 4 m/s 733 mmHg 95%
05:00 +2°C° 0.4 mm 3 m/s 733 mmHg 95%
06:00 +2°C° 0.4 mm 3 m/s 734 mmHg 95%
07:00 +1°C° 0.4 mm 3 m/s 734 mmHg 95%
08:00 +1°C° 0.3 mm 3 m/s 735 mmHg 93%
09:00 0°C° 0.3 mm 4 m/s 735 mmHg 91%
10:00 -1°C° 0.3 mm 4 m/s 736 mmHg 89%
11:00 -1°C° 0.3 mm 4 m/s 736 mmHg 86%
12:00 -1°C° 0.3 mm 4 m/s 737 mmHg 82%
13:00 -1°C° 0.3 mm 4 m/s 737 mmHg 78%
14:00 -1°C° 0.1 mm 4 m/s 738 mmHg 71%
15:00 0°C° 0.1 mm 4 m/s 738 mmHg 65%
16:00 0°C° 0.1 mm 4 m/s 739 mmHg 58%
17:00 -1°C° 0 mm 4 m/s 739 mmHg 58%
18:00 -1°C° 0 mm 3 m/s 740 mmHg 59%
19:00 -2°C° 0 mm 3 m/s 741 mmHg 60%
20:00 -2°C° 0 mm 2 m/s 742 mmHg 60%
21:00 -2°C° 0 mm 2 m/s 742 mmHg 59%
22:00 0°C° 0 mm 1 m/s 743 mmHg 58%
23:00 -2°C° 0 mm 2 m/s 743 mmHg 60%

6 Martie, Sâmbătă

Timp Temperatura Precipitaţii Vânt Presiune Umiditate
00:00 -2°C° 0 mm 2 m/s 743 mmHg 63%
01:00 -2°C° 0 mm 2 m/s 744 mmHg 65%
02:00 -2°C° 0.1 mm 3 m/s 744 mmHg 67%
03:00 -4°C° 0.1 mm 3 m/s 744 mmHg 70%
04:00 -4°C° 0.1 mm 4 m/s 745 mmHg 72%
05:00 -4°C° 0.1 mm 4 m/s 745 mmHg 72%
06:00 -5°C° 0.1 mm 5 m/s 746 mmHg 72%
07:00 -5°C° 0.1 mm 5 m/s 746 mmHg 73%
08:00 -5°C° 0 mm 5 m/s 747 mmHg 64%
09:00 -4°C° 0 mm 5 m/s 747 mmHg 55%
10:00 -2°C° 0 mm 5 m/s 748 mmHg 46%
11:00 -2°C° 0 mm 5 m/s 748 mmHg 44%
12:00 -1°C° 0 mm 5 m/s 748 mmHg 42%
13:00 -1°C° 0 mm 5 m/s 748 mmHg 41%
14:00 -1°C° 0 mm 4 m/s 748 mmHg 42%
15:00 -1°C° 0 mm 4 m/s 748 mmHg 44%
16:00 0°C° 0 mm 3 m/s 748 mmHg 46%
17:00 -1°C° 0 mm 3 m/s 748 mmHg 51%
18:00 -2°C° 0 mm 2 m/s 749 mmHg 55%
19:00 -3°C° 0 mm 2 m/s 749 mmHg 60%
20:00 -3°C° 0 mm 2 m/s 749 mmHg 62%
21:00 -3°C° 0 mm 2 m/s 749 mmHg 63%
22:00 -4°C° 0 mm 3 m/s 749 mmHg 65%
23:00 -4°C° 0 mm 3 m/s 749 mmHg 65%

7 Martie, Duminică

Timp Temperatura Precipitaţii Vânt Presiune Umiditate
00:00 -4°C° 0 mm 3 m/s 749 mmHg 66%
01:00 -4°C° 0 mm 4 m/s 749 mmHg 66%
02:00 -4°C° 0 mm 4 m/s 749 mmHg 65%
03:00 -4°C° 0 mm 4 m/s 748 mmHg 64%
04:00 -4°C° 0 mm 4 m/s 748 mmHg 64%
05:00 -4°C° 0 mm 4 m/s 748 mmHg 63%
06:00 -4°C° 0 mm 4 m/s 748 mmHg 62%
07:00 -5°C° 0 mm 5 m/s 748 mmHg 61%
08:00 -2°C° 0 mm 5 m/s 747 mmHg 57%
09:00 -2°C° 0 mm 6 m/s 747 mmHg 53%
10:00 -1°C° 0 mm 6 m/s 747 mmHg 48%
11:00 +1°C° 0 mm 6 m/s 746 mmHg 49%
12:00 +2°C° 0 mm 6 m/s 746 mmHg 49%
13:00 +2°C° 0 mm 7 m/s 745 mmHg 50%
14:00 +2°C° 0 mm 6 m/s 744 mmHg 51%
15:00 +2°C° 0 mm 6 m/s 744 mmHg 53%
16:00 +2°C° 0 mm 6 m/s 743 mmHg 55%
17:00 0°C° 0 mm 5 m/s 743 mmHg 59%
18:00 -1°C° 0 mm 5 m/s 743 mmHg 64%
19:00 -2°C° 0 mm 4 m/s 742 mmHg 69%
20:00 -2°C° 0 mm 4 m/s 742 mmHg 69%
21:00 -2°C° 0 mm 4 m/s 742 mmHg 69%
22:00 -3°C° 0 mm 4 m/s 742 mmHg 69%
23:00 -3°C° 0 mm 4 m/s 741 mmHg 69%
Arată mai mult

Formular de consimțământ

Meteoprog și furnizorii noștri de servicii pot stoca și accesa date personale, precum cookies, identificatori de dispozitiv sau alte tehnologii similare pe dispozitivul dumneavoastră și procesa astfel de date pentru a personaliza conținutul și reclamele, dar și pentru a oferi caracteristici de social media și pentru a analiza traficul.

  • Stocarea și/sau accesarea informațiilor pe dispozitivul dumneavoastră

    Cookies, identificatori de dispozitiv sau alte informații pot fi stocate sau accesate pe dispozitiv în scopurile indicate mai sus.

  • Reclame și conținut personalizat, evaluarea reclamelor și a conținutului, informații despre audiențe și dezvoltarea produselor

    Reclamele și conținutul pot fi personalizate pe baza unui profil. Pot fi adăugate date suplimentare pentru a personaliza mai bine reclamele și conținutul. Performanța reclamelor și conținutului poate fi măsurată. Pot fi obținute informații despre utilizatorii care au văzut reclamele și conținutul. Aceste date pot fi utilizate pentru a dezvolta sau îmbunătăți experiența utilizatorilor, sistemele și software-ul.

Dând clic pe ‘Sunt de acord’, permiteți utilizarea cookie-urilor menționate, a identificatorilor de dispozitiv, balizelor web sau altor tehnologii similare. Setările pot fi modificate din browser-ul dispozitivului dumneavoastră.

În anumite scopuri, interesele legitime pot prima asupra consimțământului. Puteți citi mai multe informații în acest sens în Politica privind Confidențialitatea Datelor și Cookie.